Time,TemperatureF,DewpointF,PressureIn,WindDirection,WindDirectionDegrees,WindSpeedMPH,WindSpeedGustMPH,Humidity,HourlyPrecipIn,Conditions,Clouds,dailyrainin,SoftwareType,DateUTC
2013-04-29 00:00:00,54.6,43.0,30.21,SSE,150,0.0,0.0,65,0.00,,,0.00,oem by Ross Wheeler,2013-04-29 04:00:00,
2013-04-29 00:05:00,54.6,43.0,30.21,WSW,250,0.0,0.0,65,0.00,,,0.00,oem by Ross Wheeler,2013-04-29 04:05:00,
2013-04-29 00:10:00,54.8,43.0,30.21,SSW,192,0.0,0.0,65,0.00,,,0.00,oem by Ross Wheeler,2013-04-29 04:10:00,
2013-04-29 00:15:00,54.8,44.0,30.21,SSW,192,0.0,0.0,66,0.00,,,0.00,oem by Ross Wheeler,2013-04-29 04:15:00,
2013-04-29 00:25:00,54.8,44.0,30.21,South,191,0.0,0.0,66,0.00,,,0.00,oem by Ross Wheeler,2013-04-29 04:25:00,
2013-04-29 00:30:00,54.6,44.0,30.20,South,191,0.0,0.0,67,0.00,,,0.00,oem by Ross Wheeler,2013-04-29 04:30:00,
2013-04-29 00:35:00,54.6,44.0,30.20,South,191,0.0,0.0,67,0.00,,,0.00,oem by Ross Wheeler,2013-04-29 04:35:00,
2013-04-29 00:40:00,54.5,44.0,30.20,South,191,0.0,0.0,67,0.00,,,0.00,oem by Ross Wheeler,2013-04-29 04:40:00,
2013-04-29 00:45:00,54.5,44.0,30.21,South,191,0.0,0.0,67,0.00,,,0.00,oem by Ross Wheeler,2013-04-29 04:45:00,
2013-04-29 00:50:00,54.5,44.0,30.21,South,191,0.0,0.0,68,0.00,,,0.00,oem by Ross Wheeler,2013-04-29 04:50:00,
2013-04-29 00:55:00,54.5,44.0,30.21,South,191,0.0,0.0,69,0.00,,,0.00,oem by Ross Wheeler,2013-04-29 04:55:00,
2013-04-29 01:00:00,54.3,44.0,30.20,South,191,0.0,0.0,69,0.00,,,0.00,oem by Ross Wheeler,2013-04-29 05:00:00,
2013-04-29 01:10:00,54.3,44.0,30.20,South,191,0.0,0.0,69,0.00,,,0.00,oem by Ross Wheeler,2013-04-29 05:10:00,
2013-04-29 01:15:00,54.3,44.0,30.19,South,191,0.0,0.0,69,0.00,,,0.00,oem by Ross Wheeler,2013-04-29 05:15:00,
2013-04-29 01:25:00,54.3,45.0,30.19,South,191,0.0,0.0,70,0.00,,,0.00,oem by Ross Wheeler,2013-04-29 05:25:00,
2013-04-29 01:30:00,54.3,45.0,30.19,South,191,0.0,0.0,71,0.00,,,0.00,oem by Ross Wheeler,2013-04-29 05:30:00,
2013-04-29 01:35:00,54.3,45.0,30.19,South,191,0.0,0.0,72,0.00,,,0.00,oem by Ross Wheeler,2013-04-29 05:35:00,
2013-04-29 01:45:00,54.3,45.0,30.19,South,191,0.0,0.0,72,0.00,,,0.00,oem by Ross Wheeler,2013-04-29 05:45:00,
2013-04-29 01:55:00,54.3,45.0,30.19,South,191,0.0,0.0,72,0.00,,,0.00,oem by Ross Wheeler,2013-04-29 05:55:00,
2013-04-29 02:00:00,54.3,46.0,30.19,South,191,0.0,0.0,73,0.00,,,0.00,oem by Ross Wheeler,2013-04-29 06:00:00,
2013-04-29 02:10:00,54.3,46.0,30.19,South,191,0.0,0.0,73,0.00,,,0.00,oem by Ross Wheeler,2013-04-29 06:10:00,
2013-04-29 02:15:00,54.3,46.0,30.18,South,191,0.0,0.0,74,0.00,,,0.00,oem by Ross Wheeler,2013-04-29 06:15:00,
2013-04-29 02:25:00,54.2,46.0,30.18,South,191,0.0,0.0,74,0.00,,,0.00,oem by Ross Wheeler,2013-04-29 06:25:00,
2013-04-29 02:30:00,54.2,46.0,30.18,South,191,0.0,0.0,75,0.00,,,0.00,oem by Ross Wheeler,2013-04-29 06:30:00,
2013-04-29 02:40:00,54.0,46.0,30.18,South,191,0.0,0.0,75,0.00,,,0.00,oem by Ross Wheeler,2013-04-29 06:40:00,
2013-04-29 02:45:00,54.0,46.0,30.18,South,191,0.0,0.0,75,0.00,,,0.00,oem by Ross Wheeler,2013-04-29 06:45:00,
2013-04-29 02:55:00,53.9,47.0,30.18,South,191,0.0,0.0,76,0.00,,,0.00,oem by Ross Wheeler,2013-04-29 06:55:00,
2013-04-29 03:00:00,53.9,47.0,30.17,South,191,0.0,0.0,77,0.00,,,0.00,oem by Ross Wheeler,2013-04-29 07:00:00,
2013-04-29 03:10:00,53.9,48.0,30.17,South,191,0.0,0.0,79,0.00,,,0.00,oem by Ross Wheeler,2013-04-29 07:10:00,
2013-04-29 03:15:00,53.9,48.0,30.17,South,191,0.0,0.0,79,0.00,,,0.00,oem by Ross Wheeler,2013-04-29 07:15:00,
2013-04-29 03:25:00,53.7,48.0,30.17,South,191,0.0,0.0,80,0.00,,,0.00,oem by Ross Wheeler,2013-04-29 07:25:00,
2013-04-29 03:30:00,53.7,48.0,30.17,South,191,0.0,0.0,80,0.00,,,0.00,oem by Ross Wheeler,2013-04-29 07:30:00,
2013-04-29 03:40:00,53.6,48.0,30.17,South,191,0.0,0.0,81,0.00,,,0.00,oem by Ross Wheeler,2013-04-29 07:40:00,
2013-04-29 03:45:00,53.6,48.0,30.17,South,191,0.0,0.0,81,0.00,,,0.00,oem by Ross Wheeler,2013-04-29 07:45:00,
2013-04-29 03:55:00,53.4,48.0,30.17,South,191,0.0,0.0,82,0.00,,,0.00,oem by Ross Wheeler,2013-04-29 07:55:00,
2013-04-29 04:00:00,53.3,48.0,30.17,South,191,0.0,0.0,83,0.00,,,0.00,oem by Ross Wheeler,2013-04-29 08:00:00,
2013-04-29 04:10:00,53.3,49.0,30.17,South,191,0.0,0.0,84,0.00,,,0.00,oem by Ross Wheeler,2013-04-29 08:10:00,
2013-04-29 04:15:00,53.3,49.0,30.17,South,191,0.0,0.0,85,0.00,,,0.00,oem by Ross Wheeler,2013-04-29 08:15:00,
2013-04-29 04:25:00,53.1,49.0,30.17,SE,137,0.0,0.0,85,0.00,,,0.00,oem by Ross Wheeler,2013-04-29 08:25:00,
2013-04-29 04:30:00,53.1,49.0,30.17,SE,137,0.0,0.0,86,0.00,,,0.00,oem by Ross Wheeler,2013-04-29 08:30:00,
2013-04-29 04:40:00,53.0,50.0,30.17,SE,137,0.0,0.0,88,0.00,,,0.00,oem by Ross Wheeler,2013-04-29 08:40:00,
2013-04-29 04:45:00,52.8,49.0,30.17,SE,137,0.0,0.0,88,0.00,,,0.01,oem by Ross Wheeler,2013-04-29 08:45:00,
2013-04-29 04:55:00,52.7,50.0,30.17,SE,137,0.0,0.0,89,0.00,,,0.01,oem by Ross Wheeler,2013-04-29 08:55:00,
2013-04-29 05:00:00,52.5,49.0,30.17,SE,137,1.0,0.0,89,0.00,,,0.01,oem by Ross Wheeler,2013-04-29 09:00:00,
2013-04-29 05:10:00,52.4,49.0,30.17,SE,143,1.0,0.0,88,0.00,,,0.02,oem by Ross Wheeler,2013-04-29 09:10:00,
2013-04-29 05:15:00,52.3,49.0,30.17,SE,137,2.0,0.0,88,0.00,,,0.02,oem by Ross Wheeler,2013-04-29 09:15:00,
2013-04-29 05:25:00,52.0,49.0,30.17,SE,137,1.0,0.0,88,0.00,,,0.03,oem by Ross Wheeler,2013-04-29 09:25:00,
2013-04-29 05:30:00,51.8,48.0,30.17,SE,137,1.0,0.0,88,0.00,,,0.03,oem by Ross Wheeler,2013-04-29 09:30:00,
2013-04-29 05:40:00,51.5,48.0,30.17,SSE,155,0.0,0.0,87,0.00,,,0.03,oem by Ross Wheeler,2013-04-29 09:40:00,
2013-04-29 05:45:00,51.4,48.0,30.17,SE,144,3.0,0.0,87,0.00,,,0.03,oem by Ross Wheeler,2013-04-29 09:45:00,
2013-04-29 05:55:00,51.5,47.0,30.17,SE,140,1.0,0.0,85,0.00,,,0.04,oem by Ross Wheeler,2013-04-29 09:55:00,
2013-04-29 06:00:00,51.5,47.0,30.17,SSE,148,0.0,0.0,85,0.00,,,0.04,oem by Ross Wheeler,2013-04-29 10:00:00,
2013-04-29 06:10:00,51.5,48.0,30.17,South,185,1.0,0.0,86,0.00,,,0.04,oem by Ross Wheeler,2013-04-29 10:10:00,
2013-04-29 06:15:00,51.5,48.0,30.17,ESE,121,1.0,0.0,87,0.00,,,0.04,oem by Ross Wheeler,2013-04-29 10:15:00,
2013-04-29 06:25:00,51.4,48.0,30.17,SE,130,0.0,0.0,87,0.00,,,0.04,oem by Ross Wheeler,2013-04-29 10:25:00,
2013-04-29 06:30:00,51.4,48.0,30.18,SE,126,0.0,0.0,87,0.00,,,0.04,oem by Ross Wheeler,2013-04-29 10:30:00,
2013-04-29 06:40:00,51.5,48.0,30.18,SE,134,0.0,0.0,87,0.00,,,0.04,oem by Ross Wheeler,2013-04-29 10:40:00,
2013-04-29 06:45:00,51.5,48.0,30.18,SE,127,1.0,0.0,87,0.00,,,0.04,oem by Ross Wheeler,2013-04-29 10:45:00,
2013-04-29 06:55:00,51.7,48.0,30.18,SE,144,1.0,0.0,87,0.00,,,0.04,oem by Ross Wheeler,2013-04-29 10:55:00,
2013-04-29 07:00:00,51.7,48.0,30.19,SE,143,2.0,0.0,86,0.00,,,0.04,oem by Ross Wheeler,2013-04-29 11:00:00,
2013-04-29 07:10:00,51.8,48.0,30.19,SSE,168,2.0,0.0,85,0.00,,,0.04,oem by Ross Wheeler,2013-04-29 11:10:00,
2013-04-29 07:15:00,51.8,48.0,30.19,SE,124,2.0,0.0,85,0.00,,,0.04,oem by Ross Wheeler,2013-04-29 11:15:00,
2013-04-29 07:25:00,52.0,48.0,30.19,ESE,114,2.0,0.0,85,0.00,,,0.04,oem by Ross Wheeler,2013-04-29 11:25:00,
2013-04-29 07:30:00,52.0,48.0,30.19,SE,131,0.0,0.0,86,0.00,,,0.04,oem by Ross Wheeler,2013-04-29 11:30:00,
2013-04-29 07:40:00,52.0,49.0,30.19,ESE,123,1.0,0.0,88,0.00,,,0.04,oem by Ross Wheeler,2013-04-29 11:40:00,
2013-04-29 07:45:00,52.0,49.0,30.20,SE,127,1.0,0.0,88,0.00,,,0.05,oem by Ross Wheeler,2013-04-29 11:45:00,
2013-04-29 07:55:00,51.8,49.0,30.20,SE,135,1.0,0.0,89,0.00,,,0.05,oem by Ross Wheeler,2013-04-29 11:55:00,
2013-04-29 08:00:00,51.7,49.0,30.20,SE,141,2.0,0.0,89,0.00,,,0.05,oem by Ross Wheeler,2013-04-29 12:00:00,
2013-04-29 08:10:00,51.7,49.0,30.20,SE,137,0.0,0.0,90,0.00,,,0.06,oem by Ross Wheeler,2013-04-29 12:10:00,
2013-04-29 08:15:00,51.5,49.0,30.20,SSE,147,0.0,0.0,90,0.00,,,0.06,oem by Ross Wheeler,2013-04-29 12:15:00,
2013-04-29 08:25:00,51.7,49.0,30.20,SE,131,0.0,0.0,91,0.00,,,0.06,oem by Ross Wheeler,2013-04-29 12:25:00,
2013-04-29 08:30:00,51.7,49.0,30.20,SE,135,0.0,0.0,91,0.00,,,0.06,oem by Ross Wheeler,2013-04-29 12:30:00,
2013-04-29 08:40:00,51.8,49.0,30.20,SSE,167,1.0,0.0,91,0.00,,,0.06,oem by Ross Wheeler,2013-04-29 12:40:00,
2013-04-29 08:45:00,51.8,49.0,30.20,SE,135,2.0,0.0,91,0.00,,,0.06,oem by Ross Wheeler,2013-04-29 12:45:00,
2013-04-29 08:55:00,52.0,50.0,30.20,ESE,111,0.0,0.0,91,0.00,,,0.06,oem by Ross Wheeler,2013-04-29 12:55:00,
2013-04-29 09:00:00,52.1,49.0,30.20,SE,137,0.0,0.0,90,0.00,,,0.06,oem by Ross Wheeler,2013-04-29 13:00:00,
2013-04-29 09:10:00,52.1,49.0,30.20,ESE,110,2.0,0.0,89,0.00,,,0.06,oem by Ross Wheeler,2013-04-29 13:10:00,
2013-04-29 09:15:00,52.3,49.0,30.19,SE,130,4.0,0.0,88,0.00,,,0.06,oem by Ross Wheeler,2013-04-29 13:15:00,
2013-04-29 09:25:00,52.5,49.0,30.19,ESE,120,3.0,0.0,88,0.00,,,0.06,oem by Ross Wheeler,2013-04-29 13:25:00,
2013-04-29 09:30:00,52.7,50.0,30.19,SE,141,1.0,0.0,89,0.00,,,0.06,oem by Ross Wheeler,2013-04-29 13:30:00,
2013-04-29 09:40:00,52.7,50.0,30.19,ESE,121,2.0,0.0,89,0.00,,,0.07,oem by Ross Wheeler,2013-04-29 13:40:00,
2013-04-29 09:45:00,52.7,50.0,30.19,SE,127,1.0,0.0,90,0.00,,,0.07,oem by Ross Wheeler,2013-04-29 13:45:00,
2013-04-29 09:55:00,52.7,50.0,30.19,SE,124,2.0,0.0,91,0.00,,,0.08,oem by Ross Wheeler,2013-04-29 13:55:00,
2013-04-29 10:00:00,52.7,50.0,30.19,East,99,1.0,0.0,91,0.00,,,0.08,oem by Ross Wheeler,2013-04-29 14:00:00,
2013-04-29 10:10:00,52.8,50.0,30.19,SE,143,2.0,0.0,91,0.00,,,0.08,oem by Ross Wheeler,2013-04-29 14:10:00,
2013-04-29 10:15:00,52.5,50.0,30.19,ESE,116,1.0,0.0,90,0.00,,,0.08,oem by Ross Wheeler,2013-04-29 14:15:00,
2013-04-29 10:25:00,52.3,50.0,30.19,ESE,116,2.0,0.0,90,0.00,,,0.09,oem by Ross Wheeler,2013-04-29 14:25:00,
2013-04-29 10:30:00,52.1,49.0,30.19,ESE,110,2.0,0.0,90,0.00,,,0.09,oem by Ross Wheeler,2013-04-29 14:30:00,
2013-04-29 10:40:00,52.1,49.0,30.19,East,92,1.0,0.0,90,0.00,,,0.09,oem by Ross Wheeler,2013-04-29 14:40:00,
2013-04-29 10:45:00,52.1,50.0,30.19,ESE,116,1.0,0.0,91,0.00,,,0.09,oem by Ross Wheeler,2013-04-29 14:45:00,
2013-04-29 10:55:00,52.1,50.0,30.19,ESE,114,2.0,0.0,91,0.00,,,0.10,oem by Ross Wheeler,2013-04-29 14:55:00,
2013-04-29 11:00:00,52.0,50.0,30.19,ESE,121,3.0,0.0,91,0.00,,,0.10,oem by Ross Wheeler,2013-04-29 15:00:00,
2013-04-29 11:10:00,52.0,49.0,30.19,ESE,110,2.0,0.0,90,0.00,,,0.10,oem by Ross Wheeler,2013-04-29 15:10:00,
2013-04-29 11:20:00,52.3,50.0,30.19,ESE,113,2.0,0.0,91,0.00,,,0.10,oem by Ross Wheeler,2013-04-29 15:20:00,
2013-04-29 11:30:00,52.3,50.0,30.18,ESE,116,1.0,0.0,91,0.00,,,0.10,oem by Ross Wheeler,2013-04-29 15:30:00,
2013-04-29 11:40:00,52.3,50.0,30.18,ESE,123,2.0,0.0,91,0.00,,,0.10,oem by Ross Wheeler,2013-04-29 15:40:00,
2013-04-29 11:45:00,52.4,50.0,30.18,ESE,107,3.0,0.0,91,0.00,,,0.10,oem by Ross Wheeler,2013-04-29 15:45:00,
2013-04-29 11:55:00,52.7,51.0,30.18,ESE,107,2.0,0.0,92,0.00,,,0.10,oem by Ross Wheeler,2013-04-29 15:55:00,
2013-04-29 12:00:00,52.7,50.0,30.18,ESE,114,3.0,0.0,91,0.00,,,0.10,oem by Ross Wheeler,2013-04-29 16:00:00,
2013-04-29 12:10:00,52.8,51.0,30.18,ESE,103,3.0,0.0,92,0.00,,,0.11,oem by Ross Wheeler,2013-04-29 16:10:00,
2013-04-29 12:15:00,53.0,51.0,30.18,SSE,155,3.0,0.0,92,0.00,,,0.12,oem by Ross Wheeler,2013-04-29 16:15:00,
2013-04-29 12:25:00,53.3,51.0,30.18,ESE,114,2.0,0.0,93,0.00,,,0.12,oem by Ross Wheeler,2013-04-29 16:25:00,
2013-04-29 12:30:00,53.4,52.0,30.18,ESE,113,3.0,0.0,93,0.00,,,0.13,oem by Ross Wheeler,2013-04-29 16:30:00,
2013-04-29 12:40:00,53.1,51.0,30.18,ESE,123,2.0,0.0,93,0.00,,,0.14,oem by Ross Wheeler,2013-04-29 16:40:00,
2013-04-29 12:45:00,53.1,51.0,30.17,East,97,2.0,0.0,93,0.00,,,0.14,oem by Ross Wheeler,2013-04-29 16:45:00,
2013-04-29 12:55:00,53.0,51.0,30.17,SE,126,2.0,0.0,93,0.00,,,0.15,oem by Ross Wheeler,2013-04-29 16:55:00,
2013-04-29 13:00:00,53.0,51.0,30.17,ESE,123,2.0,0.0,93,0.00,,,0.15,oem by Ross Wheeler,2013-04-29 17:00:00,
2013-04-29 13:10:00,52.8,51.0,30.17,ESE,123,1.0,0.0,93,0.00,,,0.15,oem by Ross Wheeler,2013-04-29 17:10:00,
2013-04-29 13:15:00,52.7,51.0,30.17,SE,127,4.0,0.0,93,0.00,,,0.15,oem by Ross Wheeler,2013-04-29 17:15:00,
2013-04-29 13:25:00,52.5,51.0,30.17,SE,130,2.0,0.0,93,0.00,,,0.15,oem by Ross Wheeler,2013-04-29 17:25:00,
2013-04-29 13:30:00,52.5,51.0,30.18,SSE,150,1.0,0.0,93,0.00,,,0.15,oem by Ross Wheeler,2013-04-29 17:30:00,
2013-04-29 13:40:00,52.5,51.0,30.18,ESE,106,2.0,0.0,93,0.00,,,0.15,oem by Ross Wheeler,2013-04-29 17:40:00,
2013-04-29 13:45:00,52.7,51.0,30.18,ESE,120,2.0,0.0,94,0.00,,,0.15,oem by Ross Wheeler,2013-04-29 17:45:00,
2013-04-29 13:55:00,52.8,51.0,30.18,East,95,0.0,0.0,94,0.00,,,0.16,oem by Ross Wheeler,2013-04-29 17:55:00,
2013-04-29 14:00:00,52.8,51.0,30.17,ESE,116,2.0,0.0,94,0.00,,,0.16,oem by Ross Wheeler,2013-04-29 18:00:00,
2013-04-29 14:10:00,52.8,51.0,30.17,ESE,110,2.0,0.0,94,0.00,,,0.17,oem by Ross Wheeler,2013-04-29 18:10:00,
2013-04-29 14:15:00,53.0,52.0,30.17,ESE,106,3.0,0.0,95,0.00,,,0.18,oem by Ross Wheeler,2013-04-29 18:15:00,
2013-04-29 14:25:00,52.8,51.0,30.17,ESE,121,3.0,0.0,94,0.00,,,0.18,oem by Ross Wheeler,2013-04-29 18:25:00,
2013-04-29 14:30:00,52.4,51.0,30.17,SE,141,3.0,0.0,94,0.00,,,0.18,oem by Ross Wheeler,2013-04-29 18:30:00,
2013-04-29 14:40:00,52.3,51.0,30.17,ESE,120,2.0,0.0,94,0.00,,,0.18,oem by Ross Wheeler,2013-04-29 18:40:00,
2013-04-29 14:45:00,52.3,51.0,30.16,ESE,123,2.0,0.0,94,0.00,,,0.18,oem by Ross Wheeler,2013-04-29 18:45:00,
2013-04-29 14:55:00,52.4,51.0,30.16,SE,133,1.0,0.0,93,0.00,,,0.18,oem by Ross Wheeler,2013-04-29 18:55:00,
2013-04-29 15:00:00,52.4,51.0,30.16,East,99,2.0,0.0,94,0.00,,,0.18,oem by Ross Wheeler,2013-04-29 19:00:00,
2013-04-29 15:10:00,52.3,50.0,30.16,ESE,106,2.0,0.0,93,0.00,,,0.18,oem by Ross Wheeler,2013-04-29 19:10:00,
2013-04-29 15:15:00,52.1,50.0,30.16,ESE,106,0.0,0.0,93,0.00,,,0.18,oem by Ross Wheeler,2013-04-29 19:15:00,
2013-04-29 15:25:00,52.1,50.0,30.16,ESE,107,1.0,0.0,93,0.00,,,0.18,oem by Ross Wheeler,2013-04-29 19:25:00,
2013-04-29 15:30:00,52.1,51.0,30.16,ESE,107,3.0,0.0,94,0.00,,,0.18,oem by Ross Wheeler,2013-04-29 19:30:00,
2013-04-29 15:40:00,52.1,50.0,30.16,ESE,106,1.0,0.0,93,0.00,,,0.18,oem by Ross Wheeler,2013-04-29 19:40:00,
2013-04-29 15:45:00,52.1,51.0,30.16,ESE,120,0.0,0.0,94,0.00,,,0.18,oem by Ross Wheeler,2013-04-29 19:45:00,
2013-04-29 15:55:00,52.1,50.0,30.16,ESE,121,0.0,0.0,93,0.00,,,0.18,oem by Ross Wheeler,2013-04-29 19:55:00,
2013-04-29 16:00:00,52.1,50.0,30.15,ESE,120,0.0,0.0,93,0.00,,,0.18,oem by Ross Wheeler,2013-04-29 20:00:00,
2013-04-29 16:10:00,52.3,50.0,30.15,SE,127,3.0,0.0,92,0.00,,,0.18,oem by Ross Wheeler,2013-04-29 20:10:00,
2013-04-29 16:15:00,52.1,50.0,30.14,ESE,104,3.0,0.0,91,0.00,,,0.18,oem by Ross Wheeler,2013-04-29 20:15:00,
2013-04-29 16:25:00,52.1,49.0,30.14,ESE,116,0.0,0.0,90,0.00,,,0.18,oem by Ross Wheeler,2013-04-29 20:25:00,
2013-04-29 16:30:00,52.3,50.0,30.14,East,90,2.0,0.0,90,0.00,,,0.18,oem by Ross Wheeler,2013-04-29 20:30:00,
2013-04-29 16:40:00,52.4,49.0,30.14,East,96,3.0,0.0,89,0.00,,,0.18,oem by Ross Wheeler,2013-04-29 20:40:00,
2013-04-29 16:45:00,52.5,49.0,30.14,East,100,1.0,0.0,88,0.00,,,0.18,oem by Ross Wheeler,2013-04-29 20:45:00,
2013-04-29 16:55:00,52.7,49.0,30.14,East,90,2.0,0.0,88,0.00,,,0.18,oem by Ross Wheeler,2013-04-29 20:55:00,
2013-04-29 17:00:00,52.8,49.0,30.15,ESE,106,3.0,0.0,88,0.00,,,0.18,oem by Ross Wheeler,2013-04-29 21:00:00,
2013-04-29 17:10:00,53.0,49.0,30.15,ESE,107,2.0,0.0,87,0.00,,,0.18,oem by Ross Wheeler,2013-04-29 21:10:00,
2013-04-29 17:15:00,52.8,49.0,30.15,East,96,2.0,0.0,86,0.00,,,0.18,oem by Ross Wheeler,2013-04-29 21:15:00,
2013-04-29 17:25:00,53.0,49.0,30.15,ESE,113,1.0,0.0,87,0.00,,,0.18,oem by Ross Wheeler,2013-04-29 21:25:00,
2013-04-29 17:30:00,53.0,49.0,30.15,ESE,110,2.0,0.0,86,0.00,,,0.18,oem by Ross Wheeler,2013-04-29 21:30:00,
2013-04-29 17:40:00,53.0,49.0,30.15,ESE,114,2.0,0.0,85,0.00,,,0.18,oem by Ross Wheeler,2013-04-29 21:40:00,
2013-04-29 17:45:00,53.0,49.0,30.15,East,100,3.0,0.0,85,0.00,,,0.18,oem by Ross Wheeler,2013-04-29 21:45:00,
2013-04-29 17:56:00,52.8,48.0,30.15,ESE,103,2.0,0.0,85,0.00,,,0.18,oem by Ross Wheeler,2013-04-29 21:56:00,
2013-04-29 18:05:00,52.7,48.0,30.15,ESE,104,2.0,0.0,85,0.00,,,0.18,oem by Ross Wheeler,2013-04-29 22:05:00,
2013-04-29 18:10:00,52.7,48.0,30.15,ESE,109,2.0,0.0,85,0.00,,,0.18,oem by Ross Wheeler,2013-04-29 22:10:00,
2013-04-29 18:15:00,52.7,48.0,30.16,East,100,3.0,0.0,85,0.00,,,0.18,oem by Ross Wheeler,2013-04-29 22:15:00,
2013-04-29 18:25:00,52.4,48.0,30.16,ESE,113,4.0,0.0,84,0.00,,,0.18,oem by Ross Wheeler,2013-04-29 22:25:00,
2013-04-29 18:30:00,52.4,48.0,30.16,ESE,103,3.0,0.0,84,0.00,,,0.18,oem by Ross Wheeler,2013-04-29 22:30:00,
2013-04-29 18:40:00,52.3,48.0,30.16,ESE,109,2.0,0.0,85,0.00,,,0.18,oem by Ross Wheeler,2013-04-29 22:40:00,
2013-04-29 18:45:00,52.3,48.0,30.16,ESE,104,3.0,0.0,85,0.00,,,0.18,oem by Ross Wheeler,2013-04-29 22:45:00,
2013-04-29 18:55:00,52.1,48.0,30.16,East,96,2.0,0.0,86,0.00,,,0.18,oem by Ross Wheeler,2013-04-29 22:55:00,
2013-04-29 19:00:00,52.0,48.0,30.16,ESE,107,1.0,0.0,86,0.00,,,0.18,oem by Ross Wheeler,2013-04-29 23:00:00,
2013-04-29 19:10:00,52.0,48.0,30.16,ESE,107,1.0,0.0,86,0.00,,,0.18,oem by Ross Wheeler,2013-04-29 23:10:00,
2013-04-29 19:15:00,52.0,48.0,30.16,ESE,106,3.0,0.0,86,0.00,,,0.18,oem by Ross Wheeler,2013-04-29 23:15:00,
2013-04-29 19:25:00,51.8,48.0,30.16,East,93,2.0,0.0,87,0.00,,,0.18,oem by Ross Wheeler,2013-04-29 23:25:00,
2013-04-29 19:30:00,51.7,48.0,30.16,East,87,2.0,0.0,88,0.00,,,0.18,oem by Ross Wheeler,2013-04-29 23:30:00,
2013-04-29 19:40:00,51.2,48.0,30.16,East,90,2.0,0.0,89,0.00,,,0.18,oem by Ross Wheeler,2013-04-29 23:40:00,
2013-04-29 19:45:00,51.1,48.0,30.16,ESE,103,1.0,0.0,89,0.00,,,0.18,oem by Ross Wheeler,2013-04-29 23:45:00,
2013-04-29 19:55:00,51.2,48.0,30.16,East,100,2.0,0.0,88,0.00,,,0.18,oem by Ross Wheeler,2013-04-29 23:55:00,
2013-04-29 20:00:00,51.2,48.0,30.17,ESE,102,2.0,0.0,88,0.00,,,0.18,oem by Ross Wheeler,2013-04-30 00:00:00,
2013-04-29 20:10:00,51.5,47.0,30.17,East,90,1.0,0.0,85,0.00,,,0.18,oem by Ross Wheeler,2013-04-30 00:10:00,
2013-04-29 20:15:00,51.5,47.0,30.17,SE,124,2.0,0.0,85,0.00,,,0.18,oem by Ross Wheeler,2013-04-30 00:15:00,
2013-04-29 20:25:00,51.7,47.0,30.17,ESE,107,5.0,0.0,85,0.00,,,0.18,oem by Ross Wheeler,2013-04-30 00:25:00,
2013-04-29 20:30:00,51.7,47.0,30.17,East,80,2.0,0.0,84,0.00,,,0.18,oem by Ross Wheeler,2013-04-30 00:30:00,
2013-04-29 20:40:00,51.7,47.0,30.17,ESE,111,2.0,0.0,85,0.00,,,0.18,oem by Ross Wheeler,2013-04-30 00:40:00,
2013-04-29 20:45:00,51.7,47.0,30.18,SE,127,4.0,0.0,85,0.00,,,0.18,oem by Ross Wheeler,2013-04-30 00:45:00,
2013-04-29 20:55:00,51.5,48.0,30.18,East,97,2.0,0.0,86,0.00,,,0.18,oem by Ross Wheeler,2013-04-30 00:55:00,
2013-04-29 21:00:00,51.5,48.0,30.18,East,79,4.0,0.0,87,0.00,,,0.18,oem by Ross Wheeler,2013-04-30 01:00:00,
2013-04-29 21:10:00,51.2,48.0,30.18,ESE,109,5.0,0.0,89,0.00,,,0.18,oem by Ross Wheeler,2013-04-30 01:10:00,
2013-04-29 21:15:00,51.2,48.0,30.18,East,100,1.0,0.0,89,0.00,,,0.18,oem by Ross Wheeler,2013-04-30 01:15:00,
2013-04-29 21:25:00,51.2,48.0,30.18,ESE,103,0.0,0.0,89,0.00,,,0.18,oem by Ross Wheeler,2013-04-30 01:25:00,
2013-04-29 21:30:00,51.2,48.0,30.19,East,96,1.0,0.0,89,0.00,,,0.18,oem by Ross Wheeler,2013-04-30 01:30:00,
2013-04-29 21:40:00,51.4,48.0,30.19,East,92,1.0,0.0,89,0.00,,,0.18,oem by Ross Wheeler,2013-04-30 01:40:00,
2013-04-29 21:45:00,51.4,48.0,30.19,ESE,109,2.0,0.0,89,0.00,,,0.18,oem by Ross Wheeler,2013-04-30 01:45:00,
2013-04-29 21:55:00,51.5,48.0,30.19,ESE,109,1.0,0.0,88,0.00,,,0.18,oem by Ross Wheeler,2013-04-30 01:55:00,
2013-04-29 22:00:00,51.5,48.0,30.19,ESE,113,2.0,0.0,88,0.00,,,0.18,oem by Ross Wheeler,2013-04-30 02:00:00,
2013-04-29 22:10:00,51.7,48.0,30.19,ESE,104,3.0,0.0,87,0.00,,,0.18,oem by Ross Wheeler,2013-04-30 02:10:00,
2013-04-29 22:15:00,51.7,48.0,30.18,ESE,110,1.0,0.0,87,0.00,,,0.18,oem by Ross Wheeler,2013-04-30 02:15:00,
2013-04-29 22:25:00,51.7,48.0,30.18,ESE,111,0.0,0.0,87,0.00,,,0.18,oem by Ross Wheeler,2013-04-30 02:25:00,
2013-04-29 22:30:00,51.7,48.0,30.18,SE,124,1.0,0.0,87,0.00,,,0.18,oem by Ross Wheeler,2013-04-30 02:30:00,
2013-04-29 22:40:00,51.5,48.0,30.18,ESE,110,2.0,0.0,88,0.00,,,0.18,oem by Ross Wheeler,2013-04-30 02:40:00,
2013-04-29 22:45:00,51.5,48.0,30.18,ESE,110,4.0,0.0,88,0.00,,,0.18,oem by Ross Wheeler,2013-04-30 02:45:00,
2013-04-29 22:55:00,51.5,48.0,30.18,ESE,104,1.0,0.0,88,0.00,,,0.18,oem by Ross Wheeler,2013-04-30 02:55:00,
2013-04-29 23:00:00,51.4,48.0,30.18,ESE,106,2.0,0.0,88,0.00,,,0.18,oem by Ross Wheeler,2013-04-30 03:00:00,
2013-04-29 23:10:00,51.4,48.0,30.18,SE,126,1.0,0.0,89,0.00,,,0.18,oem by Ross Wheeler,2013-04-30 03:10:00,
2013-04-29 23:15:00,51.2,48.0,30.18,ESE,113,1.0,0.0,89,0.00,,,0.18,oem by Ross Wheeler,2013-04-30 03:15:00,
2013-04-29 23:25:00,51.2,48.0,30.18,East,82,0.0,0.0,89,0.00,,,0.18,oem by Ross Wheeler,2013-04-30 03:25:00,
2013-04-29 23:30:00,51.2,48.0,30.19,East,97,1.0,0.0,90,0.00,,,0.18,oem by Ross Wheeler,2013-04-30 03:30:00,
2013-04-29 23:40:00,51.2,48.0,30.19,ESE,113,0.0,0.0,90,0.00,,,0.18,oem by Ross Wheeler,2013-04-30 03:40:00,
2013-04-29 23:45:00,51.2,48.0,30.18,ESE,113,1.0,0.0,90,0.00,,,0.18,oem by Ross Wheeler,2013-04-30 03:45:00,
2013-04-29 23:55:00,51.2,48.0,30.18,ESE,116,1.0,0.0,90,0.00,,,0.18,oem by Ross Wheeler,2013-04-30 03:55:00,